Regional Weather Roundup
Issued by NWS

Home | Current Version | Previous Version | Text Only | Print | Product List | Glossary Off
Versions: 1 2 3 4 5 6 7 8 9 10 11 12 13 14 15 16 17 18 19 20 21 22 23 24 25 26 27 28 29 30 31 32 33 34 35 36 37 38 39 40 41 42 43 44 45 46 47 48 49 50

000
ASUS43 KLOT 021600
RWRIL

ILLINOIS REGIONAL WEATHER ROUNDUP
NATIONAL WEATHER SERVICE CHICAGO/ROMEOVILLE IL
1100 AM CDT THU JUL 02 2015

NOTE: "FAIR" INDICATES FEW OR NO CLOUDS BELOW 12,000 FEET WITH NO
SIGNIFICANT WEATHER AND/OR OBSTRUCTIONS TO VISIBILITY.

* THESE STATIONS ARE NOT UNDER NWS QUALITY CONTROL. THEY ALSO MAY NOT
  REPORT WEATHER SUCH AS PRECIPITATION OR FOG.

ILZ001-002-007-009-015-016-024-021700-
NORTHWEST ILLINOIS

CITY           SKY/WX    TMP DP  RH WIND       PRES   REMARKS
MOLINE         MOSUNNY   67  53  61 E13       29.99F
STERLING*      CLOUDY    63  55  77 NE13      30.02S
$$

ILZ003-004-008-010-011-017-018-021700-
NORTH CENTRAL ILLINOIS

CITY           SKY/WX    TMP DP  RH WIND       PRES   REMARKS
ROCKFORD       MOSUNNY   66  52  60 E9        30.04S
ROCHELLE*      CLOUDY    62  54  77 NE9       30.04
DE KALB*       CLOUDY    60  53  79 NE10      30.03
$$

ILZ005-006-012>014-019>023-021700-
NORTHEAST ILLINOIS

CITY           SKY/WX    TMP DP  RH WIND       PRES   REMARKS
CHICAGO-OHARE  PTSUNNY   63  54  72 NE9       30.01S
CHICAGO-MIDWAY MOSUNNY   68  57  68 N13       30.00S
AURORA         PTSUNNY   66  55  67 NE13      30.01F
LANSING*       SUNNY     65  54  66 NE10G17   30.00
WAUKEGAN       SUNNY     61  52  72 NE10      30.03S
DUPAGE AIRPORT MOSUNNY   64  54  69 NE14      30.01S
WHEELING       MOSUNNY   63  52  67 NE12      30.03F
ROMEOVILLE*    PTSUNNY   66  55  68 NE13      29.99S
NORTHERLY ISL    N/A     61  56  83 N13         N/A
$$

LMZ740>746-021700-
SOUTHERN LAKE MICHIGAN

STATION/POSITION SKY/WX   TEMP    WIND        PRES    VSBY  WAVE
                          AIR SEA DIR/SP/G                  HT/PER
                          (F)     (DEG/KT/KT) (MB)    (MI)  (FT/S)
HARRISON CRIB              57      20/ 17/ 19   N/A
BURNHAM HARBOR             62      30/ 12/ 13   N/A
CALUMET HARBOR             61     360/ 11/ 15   N/A
BURNS HARBOR               62      40/ 12/ 13 1016.3S
MICHIGAN CITY              60      10/ 12/ 14   N/A
MICHIGAN CITY 6N           61 64   40/ 12/ 14   N/A           2/ 5
ST. JOSEPH                 59 63                N/A           2/ 4
$$

ILZ025>027-034>036-040-047-049-050-058-095>099-021700-
WEST-CENTRAL ILLINOIS

CITY           SKY/WX    TMP DP  RH WIND       PRES   REMARKS
QUINCY         SUNNY     70  56  61 E12G18    29.96R
MACOMB*        PTSUNNY   64  57  77 E8        30.00
$$

ILZ028>032-037-038-041>044-048-051>054-059>061-021700-
CENTRAL ILLINOIS

CITY           SKY/WX    TMP DP  RH WIND       PRES   REMARKS
DECATUR        PTSUNNY   68  58  70 E10       29.94S
PEORIA         PTSUNNY   66  55  67 NE9       29.99R
SPRINGFIELD    SUNNY     71  59  65 NE12      29.95R
TAYLORVILLE    NOT AVBL
$$

ILZ033-039-045-046-055>057-062-063-021700-
EAST-CENTRAL ILLINOIS

CITY           SKY/WX    TMP DP  RH WIND       PRES   REMARKS
CHAMPAIGN      MOSUNNY   68  58  70 NE9       29.94F
MATTOON        PTSUNNY   69  60  73 NE12      29.91S
$$

ILZ079-100>102-021700-
SOUTHWEST ILLINOIS

CITY           SKY/WX    TMP DP  RH WIND       PRES   REMARKS
ALTON          CLOUDY    66  64  94 N9        29.92R
BELLEVILLE     DRIZZLE   64  64 100 VRB5      29.89R FOG
CAHOKIA*       CLOUDY    67  62  84 N8        29.90R HAZE
SPARTA*        CLOUDY    69  67  94 N9        29.89R FOG
$$

ILZ064>066-069>071-074>076-080>082-084>086-088>090-092>094-021700-
SOUTH-CENTRAL ILLINOIS

CITY           SKY/WX    TMP DP  RH WIND       PRES   REMARKS
CARBONDALE     PTSUNNY   78  70  76 SW5       29.85S HX  80
MT. VERNON     CLOUDY    66  63  88 N7        29.88S
CENTRALIA*     RAIN      63  61  92 N5        29.89S
$$

ILZ067-068-072-073-078-083-087-091-021700-
SOUTHEAST ILLINOIS

CITY           SKY/WX    TMP DP  RH WIND       PRES   REMARKS
LAWRENCEVILLE  CLOUDY    70  66  87 N8        29.89S
$$

ABBREVIATIONS USED IN REMARKS
   TC - TEMPERATURE IN CELSIUS
  WCI - WIND CHILL INDEX
   HX - HEAT INDEX
  VSB - VISIBILITY
$$



USA.gov is the U.S. government's official web portal to all federal, state and local government web resources and services.